ECMWFFLT1_500_spd_234.txt.gz
Wind_Speed
32 33 33 33 32 33 32 33 34 35 35 34 33 32 31 31 30 30 30 30 29 29 28 27 26 24 24 23 23 23 22 21 20 20 19 19 20 20 19 18 17 16 15 14 15 15 15 15 14 14 13 13 15 17 20 22 23 24 25 27 28 28 27
34 35 36 36 35 35 35 35 36 36 37 37 37 36 34 34 33 32 32 31 31 30 29 29 28 26 25 24 24 23 22 22 21 20 20 20 20 20 20 20 19 18 16 16 15 15 15 16 16 15 14 14 14 14 15 18 21 23 23 23 25 27 28
35 36 37 38 38 38 37 37 37 38 39 41 41 40 38 37 37 36 35 34 33 32 31 30 29 28 27 26 25 24 23 22 22 21 21 20 20 20 20 21 21 20 18 17 17 16 16 16 16 16 15 15 15 14 14 14 17 20 21 22 24 26 28
36 36 37 39 39 40 40 40 40 39 40 42 44 43 43 41 39 38 37 36 35 34 33 31 30 30 29 28 27 26 25 24 23 22 22 21 21 21 21 21 21 21 20 19 19 18 17 17 16 16 16 16 16 15 14 14 15 17 20 22 24 26 27
35 36 37 38 40 41 42 43 43 42 41 43 44 44 44 43 42 40 39 39 38 37 36 34 32 31 30 30 29 28 27 25 24 23 22 22 22 22 22 22 22 22 22 21 21 20 19 18 18 17 17 17 17 17 16 14 14 16 17 20 23 25 27
34 36 37 38 39 40 42 43 44 44 43 44 46 46 45 43 43 42 41 40 39 39 38 36 34 33 32 31 31 30 29 27 26 25 24 23 23 22 22 22 23 23 23 23 22 22 21 20 19 18 17 17 17 17 17 16 15 16 16 17 19 22 25
33 35 37 39 40 40 41 42 43 44 44 44 45 47 46 45 45 45 43 42 41 41 41 39 37 35 34 33 32 31 30 28 27 26 25 24 23 23 23 23 23 23 24 23 23 23 23 22 20 19 18 18 18 18 18 17 17 17 16 15 16 17 21
34 35 36 38 40 41 41 42 43 44 45 45 44 44 44 45 47 47 46 44 43 42 42 42 40 38 36 35 34 32 31 30 29 29 28 27 26 25 25 25 25 25 25 25 24 24 24 23 22 20 19 19 18 18 18 18 18 18 18 16 15 14 16
37 37 37 38 39 40 41 42 43 44 44 46 46 45 44 44 46 49 49 47 46 44 43 43 42 41 39 38 36 35 34 33 32 32 31 30 29 29 28 27 27 27 27 26 26 25 25 24 23 22 21 20 19 19 18 18 18 18 18 17 16 14 13
38 39 39 39 40 41 41 42 43 44 44 45 46 47 47 46 45 48 50 49 47 46 45 45 44 43 42 40 38 37 36 36 36 35 34 33 32 31 30 30 29 29 29 28 28 27 26 26 25 24 23 21 21 20 19 19 18 18 19 18 16 15 14
37 38 40 40 40 41 42 42 42 43 45 45 45 46 46 46 44 44 47 49 49 48 47 46 45 44 44 43 40 39 38 38 38 37 36 35 33 32 32 32 31 30 30 30 29 29 28 27 26 25 24 23 23 21 20 19 19 18 19 18 16 16 15
33 35 37 38 39 40 40 42 42 42 43 44 44 44 44 44 44 43 45 48 50 49 48 48 46 45 45 44 43 41 40 40 40 39 38 37 35 34 33 33 33 32 32 31 31 30 30 29 28 27 26 25 25 24 22 21 20 19 19 19 17 16 15
30 30 32 34 36 37 38 40 41 41 42 43 43 43 43 43 45 45 46 48 49 48 48 49 49 48 46 46 46 44 42 41 41 40 40 38 38 37 35 35 34 33 33 33 33 32 32 31 30 29 29 28 27 26 25 24 22 20 20 19 18 17 17
28 28 29 30 31 33 35 37 38 40 40 41 42 42 42 43 44 45 47 48 48 47 47 47 49 49 49 50 49 47 45 42 42 42 41 39 39 39 38 36 35 34 34 35 34 34 34 33 32 31 31 30 29 28 27 26 25 23 21 21 19 18 18
29 29 29 29 30 30 31 33 35 37 38 39 40 40 41 42 43 44 45 47 48 48 47 47 48 48 49 50 50 50 49 46 43 43 42 41 41 40 40 39 37 35 35 35 36 35 35 35 34 33 33 32 31 30 29 28 27 25 23 22 21 20 20
29 29 29 30 31 31 31 31 32 33 36 37 38 39 39 40 42 43 44 45 47 47 47 47 48 48 47 47 46 45 48 47 44 43 44 44 44 43 40 39 38 37 36 36 37 37 36 36 36 35 34 34 33 32 32 31 29 28 26 25 24 23 22
28 28 28 29 31 32 31 31 31 31 32 34 36 37 38 38 40 43 43 44 45 46 46 46 47 47 47 46 44 42 44 44 43 43 44 44 44 43 41 40 39 38 38 38 37 37 38 37 38 37 36 36 35 34 34 33 32 30 29 27 26 25 25
29 28 27 27 28 30 31 31 31 31 31 32 34 35 36 37 38 40 42 43 43 44 45 45 46 46 46 46 46 45 44 43 41 43 44 43 43 43 43 42 40 38 38 39 39 39 38 38 38 38 37 37 37 36 35 35 34 33 32 30 28 27 27
29 28 27 27 27 28 29 30 31 31 30 31 32 34 35 36 37 38 40 42 43 43 43 44 46 46 45 45 46 47 47 45 44 43 43 43 44 45 46 45 42 40 40 40 41 40 39 39 39 38 38 39 39 38 37 37 36 35 34 32 30 29 28
31 30 28 27 27 27 27 28 29 30 30 30 31 32 33 34 36 37 38 40 42 43 43 43 45 46 45 44 44 46 47 47 47 46 45 46 46 46 47 47 45 43 43 42 42 42 42 40 39 37 38 40 40 39 38 38 38 37 36 35 33 31 30
32 32 31 29 27 27 27 27 27 28 29 29 29 30 31 33 34 35 37 39 40 42 43 43 43 44 45 45 44 45 46 46 46 46 47 49 49 46 46 47 46 46 45 45 44 44 45 44 41 38 38 40 41 41 39 39 39 39 39 37 36 34 33
33 33 33 31 29 28 28 28 28 28 28 29 29 28 29 30 32 33 35 37 39 40 42 43 43 43 44 44 44 44 45 45 44 43 44 46 48 48 47 47 47 47 47 46 44 44 45 46 45 42 39 39 40 40 40 40 40 41 41 39 38 36 35
33 34 34 33 32 30 28 28 28 28 28 28 28 29 28 28 30 31 32 35 38 39 40 42 43 43 42 42 43 43 45 45 44 43 42 43 45 46 45 45 46 46 46 45 44 45 44 45 49 48 42 39 39 39 40 41 42 43 43 42 40 38 37
33 34 34 34 34 32 30 29 29 29 29 27 27 28 28 27 28 29 30 32 35 37 38 40 42 43 42 41 41 41 43 44 44 45 45 45 45 45 44 44 45 45 44 42 44 47 46 47 51 50 43 39 38 38 40 42 43 43 43 43 43 41 40
33 34 34 34 34 34 33 31 29 29 30 29 27 27 28 28 27 27 28 30 32 35 36 38 40 43 43 41 40 39 40 41 41 43 45 46 45 43 41 40 41 43 42 42 44 46 47 48 48 45 40 37 37 36 37 38 39 41 42 43 43 43 43
34 34 35 35 35 35 35 33 31 30 30 30 29 27 27 27 27 27 27 28 30 33 34 35 37 41 42 42 39 38 38 39 38 38 41 43 44 42 38 35 34 34 34 35 38 40 41 42 41 39 38 37 36 36 35 34 34 36 39 41 43 43 44
34 34 35 36 36 36 36 35 33 31 30 30 30 29 27 27 27 26 26 26 28 31 33 33 34 37 41 42 40 38 38 39 39 38 37 38 41 43 41 40 38 34 30 29 30 32 34 34 35 35 35 35 35 34 34 32 32 32 34 38 41 43 43
34 35 35 36 37 37 37 36 35 33 31 30 30 30 29 27 27 26 26 25 25 28 31 32 32 34 38 41 42 41 39 38 39 40 38 36 36 39 42 45 45 43 39 33 29 29 31 32 33 33 33 34 34 34 34 33 33 33 33 34 37 40 41
34 35 35 36 37 38 38 37 36 35 34 31 30 30 30 29 27 26 26 25 24 26 29 31 31 31 34 38 42 44 42 39 37 39 39 37 35 34 37 41 43 44 42 38 34 33 33 32 33 34 34 35 35 35 35 35 35 35 34 33 34 36 38
34 35 35 36 37 38 39 39 38 37 35 33 31 30 30 30 28 27 26 25 24 24 26 28 30 30 30 34 39 43 45 42 37 36 37 37 36 35 35 36 38 40 39 38 36 37 37 36 36 37 37 37 36 37 37 36 36 36 35 34 34 35 36
35 35 36 36 37 38 38 39 40 38 37 35 33 30 30 30 30 28 27 26 25 24 24 26 28 30 29 30 35 40 44 44 41 38 36 35 35 37 37 37 37 37 37 36 37 39 39 39 39 39 38 38 37 37 37 36 36 36 36 36 36 35 35
35 35 36 36 37 38 39 39 40 40 38 36 34 32 30 30 30 29 28 27 25 24 24 25 26 28 29 29 31 35 40 43 43 41 40 37 36 36 38 39 40 40 38 37 38 39 39 40 41 40 38 38 37 36 36 36 35 35 35 36 37 37 37
36 36 37 37 38 39 39 39 40 40 39 38 36 33 31 30 30 30 28 28 27 25 24 24 25 27 29 29 29 31 35 39 42 42 41 41 40 39 38 37 38 41 42 40 40 40 39 39 40 38 36 37 38 37 35 34 33 33 33 34 36 37 37
37 37 37 38 38 39 40 41 40 40 39 38 36 35 33 31 31 30 29 28 28 27 25 24 25 26 28 29 29 30 32 36 39 41 41 41 42 42 41 39 38 38 40 40 41 42 42 40 38 36 36 37 37 36 33 32 31 31 31 31 32 33 34
38 39 39 39 39 40 41 42 42 41 40 39 37 35 33 32 31 31 30 28 28 27 26 25 24 25 27 29 30 30 30 33 36 38 40 42 42 41 42 42 41 39 38 38 38 40 43 44 42 38 36 37 36 35 34 34 33 33 33 32 31 32 33
39 40 40 40 41 41 42 43 43 42 40 39 38 35 34 32 31 31 30 29 27 27 27 26 25 25 26 28 30 31 30 31 33 36 39 41 43 42 42 41 41 41 38 35 34 34 37 42 44 41 39 39 38 37 37 37 37 37 37 36 35 35 35
41 41 42 42 42 43 43 44 44 42 41 40 38 36 34 32 31 31 30 29 28 27 26 26 25 25 25 26 29 31 31 30 31 33 36 39 42 44 43 42 42 42 38 31 29 30 32 34 37 38 38 38 39 39 39 40 40 39 38 38 38 38 37

ECMWFFLT1_500_spd_240.txt.gz
Wind_Speed
30 31 31 31 31 32 34 35 36 36 36 35 36 37 37 36 36 37 34 32 32 31 30 30 30 30 30 30 30 29 28 28 27 27 27 28 28 28 29 30 30 30 29 28 27 26 26 26 25 25 24 23 21 20 19 19 19 19 18 18 17 18 20
29 30 31 31 31 31 32 34 35 36 37 37 36 37 38 38 38 38 38 37 35 32 30 29 29 29 30 30 30 30 30 29 29 29 28 29 28 29 29 30 31 31 31 30 29 28 28 27 27 27 25 25 23 22 21 20 20 21 20 18 17 18 18
29 29 30 31 32 32 32 33 34 36 37 38 38 38 39 39 40 40 41 41 40 37 34 34 33 31 30 31 32 32 31 30 30 30 30 30 30 30 30 30 31 31 31 31 30 30 29 29 29 29 28 27 25 24 23 22 22 21 20 19 18 18 18
29 30 30 31 32 33 33 34 34 35 36 37 38 39 40 41 41 41 42 43 43 42 40 40 40 37 34 34 34 34 34 32 31 31 32 32 32 32 31 30 31 31 31 31 31 31 30 30 30 30 30 30 28 27 25 24 24 22 20 21 19 18 18
31 31 31 32 32 33 34 34 34 35 35 36 37 38 40 41 42 42 42 43 44 44 43 42 42 42 40 39 36 34 34 35 33 33 33 34 34 34 33 32 31 31 31 31 31 31 31 31 30 31 31 31 30 29 27 27 27 24 22 21 19 18 18
31 32 32 33 33 33 33 34 34 34 34 35 35 36 38 40 43 44 43 43 44 45 45 44 44 44 43 41 38 36 36 35 35 35 35 36 36 36 35 34 33 32 31 31 31 31 32 31 31 31 31 31 32 32 30 28 28 25 25 23 19 18 19
32 32 32 33 34 34 34 34 34 34 34 34 34 34 34 36 40 43 45 44 44 45 45 45 45 46 46 44 42 41 40 39 40 39 38 38 37 37 38 37 35 34 33 32 31 31 31 31 31 31 31 32 32 33 33 31 29 26 26 26 22 19 19
31 31 32 33 33 34 34 34 34 34 34 35 35 34 34 33 34 38 42 44 44 45 45 45 45 46 47 46 46 45 43 41 42 41 41 40 39 39 40 39 37 36 35 34 33 32 32 31 31 31 31 32 31 32 33 33 32 30 27 26 24 22 20
30 31 31 32 33 33 34 34 35 35 35 35 35 35 35 34 33 33 35 39 42 44 45 45 45 46 46 47 48 48 46 44 43 42 43 43 41 40 41 40 39 38 37 36 35 34 33 32 32 32 31 32 32 32 32 32 33 33 31 27 25 24 23
30 30 30 31 32 32 33 34 34 35 35 35 35 34 35 35 34 33 33 34 37 40 42 44 44 45 46 46 47 48 48 47 46 45 45 44 42 41 40 39 39 38 38 38 37 36 36 35 34 33 32 32 32 32 32 31 32 33 33 31 28 24 23
29 29 29 30 31 31 32 33 33 34 35 35 35 34 34 35 35 35 34 33 34 35 38 40 42 43 44 45 46 48 48 49 49 47 45 44 43 43 43 40 37 37 38 40 39 38 38 37 36 35 33 33 32 33 33 32 32 33 32 33 31 26 23
28 28 28 28 29 30 30 31 32 33 34 35 35 35 35 35 35 35 35 34 34 33 34 35 38 41 42 42 43 44 46 50 51 49 46 43 41 43 46 46 42 39 39 40 41 41 40 39 39 37 35 34 34 34 34 34 34 34 33 33 33 30 26
27 27 27 27 28 29 29 29 30 31 33 34 35 35 35 35 35 35 35 34 34 34 34 33 34 38 40 41 43 43 43 46 48 49 49 48 44 42 44 47 48 44 41 41 41 42 42 41 41 40 37 36 35 35 36 35 35 36 34 33 34 32 29
27 27 27 27 27 28 28 29 29 29 30 32 34 34 35 35 35 35 35 34 34 35 35 33 32 34 36 40 43 44 44 44 45 46 47 49 48 46 44 45 47 46 44 43 41 40 43 43 42 42 41 38 36 36 37 36 37 37 35 34 35 34 32
28 27 27 27 27 27 27 28 28 28 29 30 32 33 34 35 35 35 35 35 34 34 35 34 33 32 33 36 39 41 44 45 46 45 44 44 45 45 44 43 45 46 46 46 44 41 43 45 44 43 43 41 38 36 37 37 37 38 37 34 35 36 34
28 28 28 27 27 27 27 27 28 29 29 29 30 31 33 34 35 36 36 35 34 34 34 34 34 32 31 32 34 37 41 45 47 46 45 44 41 40 43 45 47 48 46 45 46 44 42 44 46 45 44 43 41 38 37 37 36 38 38 36 35 36 35
29 29 29 28 27 27 27 27 28 29 29 29 30 31 32 33 34 35 36 36 35 34 33 34 34 33 31 29 31 34 39 42 44 45 45 46 42 37 37 42 46 48 46 43 43 45 44 43 45 46 45 45 43 40 37 37 36 37 37 37 37 36 36
31 31 31 30 29 28 28 28 28 28 29 30 30 31 32 33 34 35 35 36 36 35 33 33 33 33 32 30 31 34 37 39 41 42 44 46 48 43 38 37 40 45 47 44 42 45 46 44 44 46 46 45 43 41 39 36 36 37 37 37 38 38 37
32 32 32 32 31 30 29 29 29 29 30 30 31 32 32 33 34 35 35 35 36 36 35 33 33 33 32 31 31 34 36 37 37 40 42 45 49 51 48 42 37 39 44 45 42 43 44 44 45 45 44 45 44 42 40 37 37 38 37 36 37 38 38
33 33 33 33 32 32 31 31 30 30 30 31 32 32 33 34 35 36 36 36 37 37 36 34 32 33 33 33 32 33 35 36 36 38 40 43 45 49 51 49 42 36 37 42 44 45 44 44 45 44 43 45 46 44 42 40 39 39 38 38 37 37 38
35 34 34 33 33 33 32 32 32 32 32 32 33 33 34 35 36 37 37 38 38 38 37 36 34 33 33 34 34 33 34 35 37 38 38 40 43 45 49 51 48 40 35 38 43 45 44 44 45 45 45 46 48 47 44 42 41 41 39 39 38 37 38
35 35 35 35 35 34 34 34 33 34 34 34 34 35 36 37 38 38 38 39 40 40 39 37 36 34 33 33 34 34 33 34 36 38 39 40 42 44 45 48 51 48 41 38 40 41 43 45 46 45 44 47 49 48 45 43 44 44 42 39 39 38 37
35 35 36 36 35 35 35 35 35 35 36 36 36 37 38 39 39 40 40 40 41 41 41 39 37 36 34 33 34 34 34 34 35 36 38 40 42 43 43 43 47 49 46 42 41 42 44 46 46 44 42 44 47 49 47 45 44 45 43 40 39 38 38
34 35 35 35 36 36 37 37 37 37 37 38 38 39 40 41 41 42 42 42 42 43 42 41 39 37 36 35 34 34 34 34 35 35 35 38 41 42 42 42 42 43 45 45 44 45 46 46 47 46 44 43 45 47 48 46 43 42 43 41 40 40 39
34 34 35 35 36 37 37 37 37 38 39 40 41 42 43 43 44 44 44 44 44 44 44 42 39 38 37 36 34 34 34 34 35 35 34 35 39 40 40 40 38 38 41 44 44 45 47 47 47 47 46 45 45 46 47 45 43 42 42 42 41 40 40
34 34 35 35 36 37 37 38 39 41 42 44 45 45 46 46 46 46 46 46 45 45 45 42 40 38 37 36 35 34 34 34 34 35 34 34 37 40 39 38 36 35 37 42 44 44 45 46 45 45 45 46 46 46 45 45 44 43 42 42 42 42 42
33 34 34 35 37 39 41 42 44 45 46 47 48 48 48 48 48 48 48 48 47 46 45 42 39 38 37 36 36 35 34 34 34 34 35 34 35 39 40 38 35 34 35 37 40 40 42 45 46 44 44 44 44 45 45 46 46 45 44 44 44 45 45
34 35 37 39 42 43 45 46 47 48 49 49 49 50 50 50 50 50 49 49 48 46 45 42 38 37 37 37 36 35 34 34 34 34 34 34 34 37 39 38 35 35 36 36 36 35 36 39 43 44 44 44 43 42 43 45 46 45 46 47 47 48 48
36 39 41 44 46 47 48 49 49 50 50 50 50 50 50 51 51 51 50 49 47 45 44 41 37 35 37 37 36 35 34 34 34 33 33 33 33 35 38 38 36 35 35 35 37 38 37 37 39 41 43 46 45 42 40 41 42 42 44 46 47 48 48
40 43 45 47 49 50 51 52 52 51 51 50 50 50 50 50 50 50 49 47 45 43 41 38 35 35 36 37 35 35 34 34 33 33 33 32 32 33 36 38 38 37 36 33 34 39 42 41 39 38 39 43 45 42 39 38 40 41 43 45 46 46 46
44 46 49 51 52 53 54 54 53 52 51 50 50 50 50 50 49 48 46 44 42 40 38 36 35 35 36 36 35 34 33 33 33 32 32 32 32 33 35 38 39 40 40 36 31 33 38 42 41 38 37 38 39 39 39 38 37 35 36 40 44 44 45
47 49 52 53 55 55 55 54 52 51 50 49 49 49 49 48 46 44 41 39 37 36 35 34 34 35 36 35 34 33 33 32 32 32 32 32 33 33 35 37 38 40 42 40 34 30 32 36 37 37 37 36 36 38 40 40 37 33 30 32 36 39 42
50 52 54 56 57 57 55 53 51 49 49 48 47 46 44 42 39 36 34 32 32 32 32 32 33 34 35 34 33 32 32 32 31 31 31 32 33 33 34 36 38 39 41 43 40 35 32 33 34 35 36 35 35 36 38 38 38 35 32 30 30 32 36
51 54 57 59 59 58 56 52 49 47 45 44 43 40 37 34 31 30 29 30 30 31 31 31 33 34 35 34 33 32 32 32 32 31 31 32 33 33 33 36 38 38 38 42 44 41 36 34 35 37 38 36 35 36 36 36 35 34 33 33 32 31 31
53 56 59 62 62 60 55 50 47 44 42 40 39 36 32 29 28 28 29 30 31 31 32 32 33 33 34 34 33 32 31 32 32 32 31 31 32 33 33 35 39 39 37 39 43 43 38 34 34 35 36 36 37 38 38 38 37 35 35 36 35 35 34
55 58 61 64 64 60 53 47 45 42 38 36 36 33 29 27 28 29 29 30 31 32 32 32 32 32 32 32 32 32 31 31 32 32 31 31 32 33 33 34 38 39 37 37 41 43 41 36 33 32 31 30 32 35 38 41 39 37 38 40 39 38 38
57 60 63 65 65 60 52 45 42 39 36 34 35 33 30 28 29 30 30 31 31 32 32 32 32 32 32 32 31 31 31 31 32 32 32 32 32 32 33 34 36 39 38 36 37 42 44 40 36 36 35 32 30 30 34 40 41 39 40 42 42 41 40

ECMWFFLT1_500_spd_246.txt.gz
Wind_Speed
21 21 21 22 22 22 22 22 22 22 22 22 22 22 22 22 22 22 22 22 22 23 25 27 30 32 34 35 36 37 38 38 37 36 36 36 37 38 37 36 36 35 35 35 34 33 33 32 32 31 29 28 28 29 28 26 24 24 23 23 23 22 21
21 21 21 22 22 23 23 23 24 24 23 23 23 23 22 22 22 22 22 22 22 23 23 25 27 30 33 35 37 38 38 38 38 38 37 36 37 36 35 37 38 37 36 35 35 35 34 33 33 32 31 28 29 30 30 28 27 26 25 25 24 24 22
22 22 22 23 23 23 24 24 25 25 25 25 24 24 24 23 23 22 23 23 22 22 23 23 25 27 30 33 35 37 39 40 40 40 40 39 38 35 35 37 37 37 37 37 37 37 36 35 34 33 32 29 29 31 31 29 28 27 27 28 26 25 24
25 25 25 25 25 25 25 25 26 26 26 26 26 26 26 25 24 24 23 23 23 23 23 23 23 24 27 30 33 35 38 41 41 41 40 40 39 38 38 39 36 34 36 37 38 38 38 37 35 35 35 32 29 30 31 30 28 28 29 29 27 27 26
26 27 28 28 28 27 27 27 27 27 27 27 27 27 27 27 26 26 25 24 24 23 23 23 23 23 24 26 29 31 34 37 41 42 42 41 41 41 40 40 38 35 35 37 39 40 40 39 37 36 37 36 32 30 30 30 29 30 31 30 28 28 28
29 29 30 31 31 31 30 30 29 29 29 29 29 29 29 29 28 27 26 26 25 24 24 24 24 24 23 23 25 27 30 32 35 40 43 43 44 44 44 42 40 39 38 38 37 39 41 41 39 38 38 39 35 31 30 30 30 30 30 30 30 29 30
33 33 33 33 33 33 33 33 32 32 32 32 32 32 31 31 30 29 28 28 26 25 25 24 25 25 24 24 24 25 26 28 30 33 39 44 46 47 49 48 46 44 42 40 38 38 41 41 41 40 40 41 39 35 32 30 30 30 30 31 31 31 31
35 35 35 35 34 34 34 34 34 34 34 34 34 34 34 33 33 32 31 30 29 28 26 25 25 25 25 24 24 25 25 26 27 29 32 38 44 48 51 53 52 49 47 45 44 44 44 43 42 42 42 42 42 40 36 33 30 29 30 31 31 32 33
36 36 36 37 37 36 35 35 35 35 35 36 36 36 36 35 35 35 34 33 32 31 29 27 26 25 25 25 25 25 25 26 26 27 29 32 38 44 49 53 54 53 51 50 49 50 50 48 46 44 44 44 44 43 41 37 32 29 30 31 31 32 34
36 36 37 37 38 37 37 37 36 36 36 36 37 37 37 37 37 36 36 36 35 35 34 32 29 28 26 26 26 26 26 26 26 27 28 29 32 37 43 50 54 55 53 51 50 50 51 52 50 48 46 46 45 45 44 42 36 32 32 31 30 31 33
36 37 37 38 38 38 38 37 37 37 37 37 37 37 37 38 38 37 37 37 37 37 37 36 34 31 29 28 28 28 28 28 27 28 29 29 31 33 36 42 50 54 55 53 52 50 50 51 52 50 48 46 46 46 45 44 41 37 35 32 29 30 32
36 37 38 39 39 38 38 37 37 37 38 38 38 38 38 38 38 38 38 38 38 38 38 38 37 35 33 32 30 30 31 30 30 29 30 30 31 32 33 36 42 49 53 54 55 54 52 51 51 51 48 46 46 46 46 47 44 42 39 35 31 31 32
37 38 38 39 38 38 37 37 37 37 38 38 38 39 39 39 38 39 39 39 39 39 39 39 39 38 37 36 34 33 33 33 33 32 32 32 32 32 33 35 37 42 49 53 55 57 57 55 52 52 51 50 49 47 47 49 47 44 43 40 35 33 33
38 38 38 38 38 38 38 38 38 38 38 39 39 40 40 40 40 40 40 39 39 40 40 40 40 39 38 38 38 37 36 36 36 36 35 34 34 33 33 35 36 39 43 49 52 55 58 59 58 56 55 54 52 49 47 49 49 47 47 45 40 35 35
36 37 37 37 37 37 38 38 38 38 37 38 38 38 38 38 39 39 39 39 39 40 40 40 40 40 39 39 40 40 40 39 39 39 39 38 37 35 34 35 37 38 39 43 48 52 55 58 59 59 57 54 51 50 49 48 50 50 50 50 45 39 37
35 36 36 37 37 37 37 36 36 36 35 35 35 35 35 36 36 37 37 38 39 39 40 40 41 41 41 41 41 42 43 43 42 42 42 41 40 38 36 36 37 38 38 39 43 49 52 54 57 59 58 56 52 51 51 50 50 50 51 52 49 44 40
36 36 37 37 37 37 36 36 35 34 34 34 34 35 35 36 38 39 40 41 42 42 43 43 43 44 45 45 45 46 46 47 46 45 44 43 43 42 39 38 37 38 38 39 40 44 49 52 54 56 58 56 54 53 53 52 50 50 51 53 52 48 43
36 36 36 36 36 36 36 35 35 35 35 35 36 37 39 41 43 44 46 47 48 48 49 48 48 49 49 49 50 50 51 50 50 49 47 45 44 43 42 40 39 38 38 38 39 41 45 49 51 53 55 55 54 55 54 53 51 50 51 53 53 51 47
34 35 35 36 36 36 36 36 36 37 38 39 40 41 43 45 47 49 50 51 52 53 53 53 53 53 52 53 53 54 54 54 53 52 50 48 45 44 44 42 41 40 39 39 39 39 42 46 49 50 52 52 53 56 56 55 53 50 50 53 54 52 49
34 34 34 35 35 36 37 38 38 39 40 42 43 44 46 47 49 50 51 52 53 54 55 56 55 54 54 54 55 56 56 56 55 54 52 49 47 45 44 43 42 41 40 40 39 39 40 43 47 48 50 51 52 55 56 55 55 53 52 54 55 55 53
34 34 34 35 36 37 38 39 40 42 43 44 45 46 47 48 49 50 52 53 55 57 57 55 53 53 54 55 56 57 57 56 55 53 51 49 47 45 43 42 42 41 41 41 40 40 40 41 44 47 50 51 52 54 54 53 53 53 54 56 55 56 56
34 35 36 36 37 38 39 40 42 43 44 45 46 47 48 50 51 52 54 57 59 59 55 51 49 49 50 52 53 53 52 52 51 49 48 46 45 44 43 42 41 41 41 41 41 40 40 41 42 46 49 51 53 54 52 51 50 49 53 56 55 54 56
35 36 37 38 38 40 41 42 43 44 45 46 47 49 51 53 54 55 57 61 62 57 50 47 46 45 44 44 44 43 43 43 42 42 42 42 41 41 40 40 40 40 41 41 41 40 40 40 41 44 47 49 53 55 54 52 48 45 48 53 55 54 54
36 37 37 38 40 41 42 43 44 46 47 49 50 52 54 55 57 58 60 63 61 52 46 44 42 38 36 34 33 33 33 34 34 35 36 36 36 37 37 38 39 39 40 41 42 40 40 40 41 42 45 48 51 54 55 53 48 45 46 48 51 53 54
36 37 38 40 41 43 44 44 45 47 50 52 53 54 56 56 58 59 61 62 58 49 43 41 37 32 30 29 28 28 29 29 30 31 32 33 34 34 35 36 38 39 39 41 42 41 39 39 40 42 44 46 49 52 56 56 49 45 45 44 44 47 49
37 38 40 41 42 44 45 46 47 49 52 54 56 56 57 57 58 59 60 60 56 47 41 38 34 30 29 29 28 28 29 29 29 30 30 31 32 33 34 35 37 39 40 41 42 41 40 39 40 41 43 45 47 49 55 58 53 46 44 43 41 40 41
38 40 41 42 43 45 46 47 49 51 54 55 57 57 57 57 58 59 59 58 54 47 41 38 34 31 28 28 28 28 28 28 29 29 30 30 31 32 34 36 37 39 41 41 42 41 40 39 40 41 42 44 45 47 51 55 55 50 45 41 37 35 36
40 41 42 43 45 46 48 50 51 53 54 55 56 56 57 58 58 59 58 57 53 47 41 38 36 33 30 28 27 27 28 28 28 29 29 29 30 30 32 34 36 38 40 41 41 41 40 39 39 41 42 43 44 46 48 49 51 52 49 43 38 36 38
40 42 43 45 46 47 49 51 53 54 55 55 55 55 56 56 57 58 58 57 54 48 41 38 38 37 36 33 31 29 29 29 29 29 30 30 29 29 30 31 33 36 38 39 40 40 40 39 39 40 42 42 43 44 46 45 45 48 49 47 44 43 41
41 43 44 45 46 48 50 52 53 54 55 55 55 54 54 54 55 56 57 57 55 50 43 39 38 39 39 38 36 34 32 31 31 30 31 31 30 29 29 29 30 32 34 36 37 38 38 39 39 39 40 41 42 43 44 44 43 44 47 48 48 46 43
41 43 45 46 47 48 50 52 53 54 55 55 54 53 53 53 54 54 55 55 54 51 45 41 38 38 39 40 40 38 36 34 33 33 33 32 32 31 29 29 29 29 31 33 35 36 37 38 38 39 39 40 40 41 42 44 43 43 45 47 46 45 45
41 43 44 46 47 49 50 51 53 53 54 55 55 53 53 53 53 53 53 54 53 51 47 43 39 37 37 38 40 40 38 36 34 34 33 33 32 32 31 29 28 28 28 30 33 35 36 37 37 38 39 38 38 40 42 44 45 44 45 47 46 45 46
42 43 44 46 47 49 50 51 53 53 53 54 55 54 53 53 53 53 52 53 53 51 48 45 42 39 38 38 38 38 38 37 35 33 33 32 31 31 31 30 29 28 27 28 31 33 35 36 36 37 38 37 37 40 43 44 43 43 45 48 49 48 46
42 43 45 46 47 49 50 51 53 53 53 53 54 54 54 53 53 53 52 52 52 52 50 47 44 42 41 40 40 39 37 36 35 32 31 31 29 29 30 30 29 28 27 28 29 31 33 34 35 36 37 36 36 39 43 44 42 41 43 47 49 50 48
42 44 45 47 48 49 50 51 52 53 53 53 54 54 54 53 53 53 52 51 51 52 52 50 47 44 43 42 41 40 37 36 34 31 29 28 28 28 29 30 29 28 27 27 29 30 31 32 33 35 36 36 36 38 44 48 45 39 37 38 41 45 49
43 44 45 47 48 49 50 51 52 53 53 54 54 53 53 53 53 53 52 51 50 50 51 52 50 47 46 44 43 41 37 35 32 29 27 27 27 27 28 29 30 28 26 26 28 29 30 31 32 33 35 36 36 37 43 49 49 42 36 32 31 35 43
43 44 46 47 48 49 50 51 52 53 54 54 54 54 53 53 53 53 52 51 50 50 50 51 51 50 48 46 45 42 37 33 30 27 26 26 25 26 27 28 29 29 27 26 26 28 29 30 30 32 34 35 36 38 41 46 49 46 41 34 28 29 36

ECMWFFLT1_500_spd_252.txt.gz
Wind_Speed
16 16 18 19 20 22 23 24 25 26 26 27 27 28 28 29 29 30 31 31 32 32 32 33 33 33 33 33 33 33 33 33 33 33 32 33 34 35 36 36 36 36 37 39 41 42 41 40 38 37 37 38 39 40 40 41 41 39 38 38 37 35 35
17 18 20 21 23 24 25 26 26 27 27 28 28 28 29 29 29 29 30 30 31 32 33 33 34 34 35 35 35 35 35 35 35 34 34 33 33 34 34 36 37 37 37 38 40 41 42 42 40 39 39 39 39 40 42 42 42 41 39 38 37 36 35
19 20 22 23 24 25 25 26 26 27 28 28 29 29 29 29 29 29 29 29 30 30 31 32 33 34 34 35 35 35 35 36 36 36 36 35 35 34 34 34 36 37 37 38 39 40 42 42 42 41 40 41 40 40 42 44 43 43 41 39 38 36 36
21 22 23 23 24 24 25 26 27 28 29 29 29 29 29 29 29 29 29 29 29 29 30 30 31 32 33 33 34 35 35 35 36 37 37 37 36 36 36 35 35 36 36 37 38 39 41 42 42 40 40 41 42 40 42 44 44 44 43 41 39 37 37
21 22 23 23 23 24 26 28 29 29 30 30 29 29 29 29 29 29 29 29 28 28 29 29 30 31 31 32 32 33 34 35 36 37 37 38 38 37 37 37 37 37 36 36 37 37 39 41 42 42 41 43 43 41 41 43 44 45 44 43 41 39 38
21 22 22 23 24 26 28 29 29 29 29 28 28 28 28 28 29 29 29 29 29 29 29 29 29 30 30 31 31 31 32 33 34 35 37 38 39 39 38 38 38 38 38 37 37 36 37 39 40 42 43 44 45 44 42 42 43 45 45 45 43 41 40
22 22 23 25 26 27 28 28 28 28 27 27 27 27 27 27 28 28 29 29 30 30 30 30 30 31 31 31 32 33 33 33 34 34 35 37 39 40 40 40 39 39 39 39 38 37 37 37 38 39 40 42 44 46 45 43 43 44 45 46 45 43 42
23 23 24 25 26 26 27 27 27 27 28 28 29 29 28 28 28 28 29 29 30 31 32 33 34 34 35 35 35 36 36 37 37 37 37 37 38 39 41 41 41 41 41 40 39 39 38 37 37 38 39 39 40 43 46 45 44 43 44 45 46 45 44
23 23 24 25 26 26 26 26 27 28 30 31 32 32 32 31 30 30 30 30 31 32 33 34 35 36 37 38 39 39 40 40 41 41 41 41 41 41 42 42 42 42 42 42 42 41 40 38 38 37 38 38 37 37 41 44 45 44 43 44 45 46 46
22 23 23 24 25 26 27 28 29 31 32 33 34 34 33 33 32 32 32 32 32 33 33 34 35 36 38 39 40 42 43 43 44 45 45 44 44 44 45 45 44 44 44 44 44 44 43 41 40 38 37 38 38 36 36 39 42 45 47 45 43 45 47
22 22 23 24 26 27 29 31 32 33 33 33 33 33 33 32 33 33 33 33 34 34 34 35 35 36 37 38 39 41 42 44 45 46 47 47 47 47 47 48 48 47 45 45 45 45 45 44 43 41 39 38 38 38 36 35 37 41 48 49 45 44 46
22 23 24 26 27 29 31 32 33 33 33 33 32 33 33 33 33 34 34 35 35 36 36 37 37 38 38 39 39 40 41 42 43 45 47 49 50 51 51 50 50 50 49 47 47 46 46 46 45 44 42 40 39 39 38 36 34 35 42 49 50 47 45
24 25 27 28 29 31 32 32 33 33 33 33 33 33 34 35 35 35 36 36 37 38 39 40 40 41 42 43 43 43 43 44 44 46 47 50 51 52 52 51 51 51 51 50 49 49 48 47 47 46 45 43 41 40 40 39 35 32 34 42 49 51 49
26 27 28 30 31 31 32 32 32 32 33 33 33 34 35 36 36 36 37 37 38 38 39 40 42 43 44 45 46 46 46 46 47 48 50 52 53 50 48 48 48 49 51 52 52 52 51 50 49 47 47 46 44 43 42 41 39 34 32 35 42 49 53
27 28 29 30 31 31 32 32 33 33 33 33 34 35 36 36 37 37 38 38 39 39 39 40 41 42 43 45 46 47 47 48 49 50 52 54 54 49 44 43 44 44 46 50 53 54 53 52 51 50 49 48 47 45 44 43 42 38 34 34 37 43 50
27 29 30 31 31 32 32 32 33 33 33 34 35 36 37 37 38 38 39 39 40 40 41 41 42 42 44 45 46 48 49 50 50 51 52 54 55 49 43 40 41 42 42 44 48 52 54 54 53 52 51 50 49 48 47 46 44 42 38 35 35 39 44
28 29 30 31 31 32 32 33 33 33 34 35 36 37 38 38 39 40 40 41 42 42 43 43 44 44 45 46 47 48 50 51 51 52 52 53 54 50 43 40 40 40 39 40 42 47 51 54 54 53 52 52 52 50 49 49 47 45 43 38 35 37 41
28 29 30 31 32 32 33 33 33 34 35 36 37 38 39 39 40 41 42 42 43 44 45 46 46 47 47 48 48 49 49 50 52 52 53 53 53 52 45 40 39 39 38 37 37 41 45 49 52 54 53 52 53 52 51 50 49 48 46 43 39 37 39
28 29 30 31 32 32 33 34 34 35 35 37 38 39 40 40 41 42 43 44 45 45 46 47 48 49 49 49 50 50 50 50 51 52 53 53 53 52 48 42 39 38 38 37 35 36 39 44 48 51 53 53 52 53 52 51 51 50 49 47 43 39 39
29 30 31 31 32 33 34 34 35 36 36 37 38 39 41 41 42 43 44 45 46 47 48 49 50 50 51 51 51 51 51 51 51 52 52 53 53 52 50 45 41 39 38 37 36 34 35 38 43 47 50 52 52 52 53 52 52 51 50 49 47 43 40
29 30 31 32 33 34 35 35 36 37 37 38 39 41 42 42 43 44 45 46 47 48 50 50 51 51 52 52 53 52 52 52 52 52 52 53 53 53 51 48 43 41 40 38 37 35 34 34 37 42 47 50 51 52 53 52 52 52 51 51 50 47 43
29 30 31 32 34 34 35 36 37 38 39 40 41 42 43 44 45 46 47 48 49 50 51 52 52 53 53 53 53 53 53 53 52 52 52 52 53 53 52 50 46 42 41 41 40 38 35 34 34 37 42 47 50 51 52 52 52 52 52 52 51 50 46
30 31 32 33 34 36 36 37 38 39 40 41 42 43 44 45 46 47 47 49 50 51 53 53 54 54 54 54 54 53 53 53 53 52 52 52 52 53 53 52 49 45 42 41 41 41 39 36 34 34 37 42 47 50 51 52 52 52 52 52 52 51 49
32 33 34 35 36 37 38 39 40 41 42 43 43 44 45 46 47 48 49 50 51 52 54 55 55 55 55 55 55 54 54 53 52 52 52 52 52 52 53 53 51 48 44 42 42 42 42 40 37 35 35 37 42 47 51 52 53 53 53 53 52 52 51
34 34 35 36 37 39 40 41 42 43 43 44 45 46 47 48 49 50 51 51 52 53 53 55 55 55 56 56 56 56 55 54 53 52 51 52 52 52 53 53 53 50 48 45 43 42 42 42 41 39 36 35 37 41 47 51 53 53 53 53 53 52 52
35 36 37 38 39 40 42 43 44 45 46 46 47 48 48 49 50 51 52 52 53 53 53 54 55 56 56 56 57 56 56 56 54 53 52 51 51 52 52 53 53 52 51 48 45 43 41 41 41 41 40 38 36 37 41 47 51 53 54 54 53 52 52
36 37 38 39 40 42 43 44 45 46 47 47 48 49 49 50 50 51 51 52 53 53 54 54 55 56 56 57 57 57 57 57 56 54 53 52 51 52 52 52 53 53 52 50 47 43 41 40 40 41 41 40 38 37 37 41 47 52 53 53 53 52 51
37 38 39 40 41 42 43 44 45 47 48 48 49 50 50 50 51 51 52 53 54 54 54 55 55 56 57 57 58 58 58 58 57 55 54 53 52 52 53 53 53 53 53 52 49 44 41 39 38 39 40 40 39 38 37 39 43 48 51 52 52 52 52
38 40 41 42 42 43 44 45 46 48 49 50 50 51 51 51 52 52 53 53 54 55 55 56 56 56 57 58 58 59 59 59 58 57 55 54 53 52 53 54 53 54 54 53 50 45 40 38 36 37 38 39 39 38 38 39 39 42 47 50 51 52 52
40 41 42 43 43 44 45 46 47 49 50 50 51 51 52 52 53 53 53 54 55 55 55 56 56 57 58 59 59 59 60 60 59 58 57 55 53 53 53 54 54 54 54 53 51 47 41 36 35 35 37 39 39 38 38 39 38 38 43 47 49 51 51
42 43 43 43 44 45 46 47 49 50 50 51 51 52 52 53 53 53 54 54 55 55 56 56 56 57 58 60 60 60 60 60 60 59 58 56 54 53 53 54 54 54 54 53 50 47 42 36 34 35 36 38 39 38 38 37 37 37 39 43 46 49 50
43 44 44 45 46 47 48 49 50 50 51 52 52 52 52 53 53 54 54 55 56 56 56 56 57 58 59 60 61 61 61 61 61 60 59 57 55 53 53 53 54 54 54 53 50 46 43 38 34 34 36 36 37 37 37 36 36 36 37 40 43 46 48
45 45 46 47 48 49 49 50 51 51 52 53 53 53 53 54 54 55 55 56 57 57 57 57 58 59 60 61 62 62 62 62 62 62 61 59 56 54 53 52 53 53 54 53 50 45 42 38 35 34 35 35 35 35 35 35 35 35 35 37 40 43 45
46 47 48 49 49 50 51 52 52 53 53 54 54 54 54 55 55 56 57 58 58 58 58 59 59 59 61 62 63 63 63 63 63 63 62 60 58 56 54 52 52 52 53 52 49 44 41 38 36 35 34 34 34 34 34 34 34 34 34 36 38 40 42
48 49 49 50 50 51 53 53 54 55 55 55 55 56 56 56 57 58 58 59 59 59 59 60 60 61 62 63 64 64 64 64 64 65 64 63 61 58 55 53 51 50 51 51 48 43 40 38 36 35 35 34 34 34 34 34 34 33 34 35 37 38 40
49 50 50 51 52 53 54 55 56 57 57 57 57 57 58 59 59 59 60 60 60 60 60 61 61 62 62 63 64 65 65 65 66 67 67 65 63 61 58 54 51 49 49 50 47 42 39 38 37 35 35 34 34 34 34 34 34 33 33 34 36 37 38
50 51 52 53 54 55 56 56 57 58 58 59 59 59 60 60 61 61 61 61 61 61 61 62 62 63 64 64 65 65 66 67 68 69 70 69 67 65 60 55 51 48 47 48 47 42 38 38 37 36 35 34 33 33 33 33 33 33 32 33 35 37 37